DW2416 Weather Reports


time (UTC)temp
C
wind
direction
speed
KPH
gust
KPH
rain 1hr
cm
rain 24hr
cm
rain mn
cm
humidity
%
barometer
mb
20211017065003 12 0 0.0 0.0 0.00 2.24 0.00 95 1004.3
20211017064004 12 295 1.6 3.2 0.00 2.24 0.00 95 1004.2
20211017063004 12 295 0.0 4.8 0.00 2.24 0.00 95 1004.1
20211017062003 12 0 0.0 0.0 0.00 2.69 0.00 94 1004.1
20211017061004 12 0 0.0 0.0 0.00 2.69 0.00 94 1004.0
20211017060005 12 0 0.0 0.0 0.00 2.69 0.00 94 1004.0
20211017055003 12 0 0.0 0.0 0.00 2.69 0.00 94 1004.0
20211017054003 12 0 0.0 0.0 0.00 2.69 0.00 94 1003.9
20211017053003 13 295 0.0 3.2 0.00 2.69 0.00 94 1003.6
20211017052004 13 295 1.6 3.2 0.00 2.69 0.00 94 1003.7
20211017051004 13 267 1.6 6.4 0.00 2.72 0.00 94 1003.8
20211017050004 13 36 1.6 3.2 0.00 2.72 0.00 94 1003.9
20211017045004 13 35 0.0 1.6 0.00 2.72 0.00 94 1003.9
20211017044003 13 34 1.6 6.4 0.00 2.72 0.00 94 1003.9
20211017043004 13 32 3.2 6.4 0.00 2.74 0.00 94 1003.6
20211017042003 13 33 0.0 4.8 0.00 2.74 0.00 94 1003.9
20211017041003 13 35 4.8 8.0 0.00 2.74 0.00 94 1004.2
20211017040004 13 20 4.8 6.4 0.03 2.74 0.00 94 1004.2
20211017035004 13 39 1.6 3.2 0.03 2.79 2.74 94 1003.6
20211017034004 13 42 1.6 4.8 0.05 2.82 2.74 94 1004.1
20211017033003 13 19 4.8 6.4 0.08 2.82 2.74 93 1004.6
20211017032004 13 13 3.2 6.4 0.08 2.82 2.74 94 1004.6
20211017031004 13 26 4.8 9.7 0.10 2.82 2.74 93 1004.2
20211017030003 13 70 4.8 12.9 0.10 2.79 2.72 93 1004.7
20211017025004 13 41 4.8 8.0 0.13 2.79 2.72 93 1004.3
20211017024003 13 40 3.2 8.0 0.13 2.77 2.69 93 1003.8
20211017023004 13 51 4.8 9.7 0.15 2.74 2.67 93 1004.0
20211017022004 13 49 4.8 8.0 0.18 2.74 2.67 93 1004.2
20211017021004 13 39 4.8 8.0 0.18 2.72 2.64 93 1003.5
20211017020004 13 41 4.8 8.0 0.15 2.69 2.62 93 1003.8
20211017015003 13 47 6.4 11.3 0.15 2.67 2.59 92 1004.0
20211017014004 13 45 6.4 11.3 0.13 2.64 2.57 91 1004.6
20211017013004 14 54 4.8 9.7 0.13 2.59 2.51 91 1004.5
20211017012004 14 69 3.2 8.0 0.13 2.57 2.49 90 1004.1
20211017011003 14 69 4.8 8.0 0.10 2.54 2.46 89 1004.0
20211017010004 14 107 9.7 19.3 0.13 2.54 2.46 89 1003.9
20211017005004 14 138 12.9 22.5 0.18 2.51 2.44 89 1004.0
20211017004003 14 120 11.3 19.3 0.20 2.49 2.41 91 1003.5
20211017003004 14 89 4.8 16.1 0.25 2.46 2.39 94 1003.6
20211017002003 15 95 9.7 19.3 0.33 2.44 2.36 94 1003.8
20211017001003 15 90 8.0 16.1 0.46 2.44 2.36 94 1003.7
20211017000004 15 90 11.3 22.5 0.48 2.41 2.34 95 1003.1
20211016235004 16 90 6.4 19.3 0.46 2.34 2.26 95 1002.9
20211016234004 16 85 4.8 11.3 0.43 2.29 2.21 95 1002.6
20211016233004 16 72 4.8 11.3 0.36 2.18 2.11 95 1002.7
20211016232003 16 61 6.4 12.9 0.28 2.11 2.03 95 1002.4
20211016231003 16 84 6.4 14.5 0.18 1.98 1.91 95 1002.5
20211016230004 16 52 4.8 8.0 0.13 1.93 1.85 95 1002.5
20211016225004 16 67 3.2 8.0 0.13 1.88 1.80 95 1002.2
20211016224004 16 61 1.6 3.2 0.13 1.85 1.78 95 1001.2
20211016223004 16 42 3.2 6.4 0.13 1.83 1.75 95 1001.3
20211016222004 16 45 4.8 8.0 0.13 1.83 1.75 95 1001.4
20211016221003 16 23 4.8 8.0 0.10 1.83 1.73 95 1001.5
20211016220003 16 54 3.2 6.4 0.13 1.80 1.70 95 1001.5
20211016215003 16 54 8.0 12.9 0.15 1.78 1.68 95 1001.6
20211016214003 16 28 8.0 14.5 0.15 1.75 1.65 95 1001.1
20211016213003 16 24 8.0 14.5 0.15 1.73 1.63 95 1001.1
20211016212003 16 7 9.7 16.1 0.18 1.73 1.63 95 1000.9
20211016211004 16 19 9.7 16.1 0.23 1.73 1.63 95 1001.0
20211016210003 16 36 11.3 17.7 0.18 1.68 1.57 95 1001.9
20211016205004 16 10 8.0 14.5 0.13 1.63 1.52 94 1001.3
20211016204003 16 356 4.8 8.0 0.13 1.60 1.50 94 1001.0
20211016203003 16 5 8.0 14.5 0.15 1.57 1.47 94 1000.9
20211016202003 16 4 4.8 8.0 0.33 1.55 1.45 94 1000.8
20211016201003 16 343 4.8 11.3 0.61 1.50 1.40 94 1000.9
20211016200004 16 353 6.4 12.9 0.81 1.50 1.40 93 1001.1
20211016195004 16 44 3.2 8.0 0.81 1.50 1.40 93 1000.8
20211016194004 16 67 3.2 8.0 0.79 1.47 1.37 92 1000.7
20211016193004 16 114 11.3 20.9 0.74 1.42 1.32 92 1000.3
20211016192003 17 144 22.5 40.2 0.53 1.22 1.12 90 1000.0
20211016191004 21 100 22.5 51.5 0.20 0.89 0.79 74 1000.1
20211016190004 23 51 24.1 51.5 0.00 0.69 0.58 70 998.3
20211016185003 23 46 22.5 35.4 0.00 0.69 0.58 72 998.2
20211016184003 23 39 22.5 35.4 0.00 0.69 0.58 72 997.8
20211016183003 23 27 22.5 35.4 0.00 0.69 0.58 71 997.8
20211016182004 23 27 27.4 51.5 0.00 0.69 0.58 70 998.0
20211016181004 23 29 25.7 49.9 0.00 0.69 0.58 70 998.1
20211016180003 23 23 22.5 38.6 0.00 0.69 0.58 72 998.2
20211016175004 23 35 24.1 46.7 0.00 0.69 0.58 70 998.3
20211016174004 24 42 19.3 35.4 0.00 0.69 0.58 70 998.3
20211016173004 24 44 24.1 48.3 0.00 0.69 0.58 69 998.4
20211016172004 24 43 25.7 48.3 0.00 0.69 0.58 69 998.6
20211016171003 24 39 25.7 49.9 0.00 0.69 0.58 70 999.2
20211016170004 24 38 27.4 43.5 0.00 0.69 0.58 69 999.7
20211016165003 25 35 29.0 54.7 0.00 0.69 0.58 69 999.5
20211016164003 24 39 25.7 45.1 0.00 0.69 0.58 71 999.7
20211016163004 23 42 20.9 43.5 0.00 0.69 0.58 74 1000.0
20211016162004 23 38 22.5 45.1 0.00 0.69 0.58 73 1000.2
20211016161004 23 44 24.1 43.5 0.00 0.69 0.58 74 1000.5
20211016160004 23 47 20.9 45.1 0.00 0.69 0.58 76 1000.6
20211016155003 23 42 20.9 43.5 0.00 0.69 0.58 77 1000.9
20211016154004 23 36 17.7 29.0 0.00 0.69 0.58 81 1001.1
20211016153003 22 35 16.1 30.6 0.00 0.69 0.58 82 1001.3